Le nostre stazioni meteo in Italia

Pubblicità
Il mio iltempo24.it
S. Maria Di Leuca, Italia (16360): Temperatura & dewpoint: 19.01.2020 06:00:00 - 25.01.2020 06:00:00 (CET)S. Maria Di Leuca, Italia (16360): velocità del vento: 19.01.2020 06:00:00 - 25.01.2020 06:00:00 (CET)S. Maria Di Leuca, Italia (16360): direzione del vento: 19.01.2020 06:00:00 - 25.01.2020 06:00:00 (CET)S. Maria Di Leuca, Italia (16360): reduced air pressure: 19.01.2020 06:00:00 - 25.01.2020 06:00:00 (CET)S. Maria Di Leuca, Italia (16360): visibility: 19.01.2020 06:00:00 - 25.01.2020 06:00:00 (CET)S. Maria Di Leuca, Italia (16360): ore di luce: 19.01.2020 06:00:00 - 25.01.2020 06:00:00 (CET)
Data & Tempo tt [°C] td [°C] ff [km/h] ff [kn] dd ppp [hPa] vv [km] sd [min]
25.01.2020 06:00:00 - - - - - - - -
25.01.2020 05:00:00 - - - - - - - -
25.01.2020 04:00:00 - - - - - - - -
25.01.2020 03:00:00 - - - - - - - -
25.01.2020 02:00:00 - - - - - - - -
25.01.2020 01:00:00 - - - - - - - -
25.01.2020 00:00:00 - - - - - - - -
24.01.2020 23:00:00 - - - - - - - -
24.01.2020 22:00:00 - - - - - - - -
24.01.2020 21:00:00 - - - - - - - -
24.01.2020 20:00:00 - - - - - - - -
24.01.2020 19:00:00 12,0 7,7 15 8 SSE 1028,7 10 -
24.01.2020 18:00:00 12,2 7,5 9 5 S 1028,7 10 -
24.01.2020 17:00:00 12,0 6,9 11 6 S 1028,7 10 18
24.01.2020 16:00:00 13,0 7,2 13 7 S 1028,8 10 60
24.01.2020 15:00:00 13,0 7,0 13 7 S 1029,2 10 60
24.01.2020 14:00:00 13,0 7,0 15 8 SSO 1029,3 10 60
24.01.2020 13:00:00 13,0 7,0 15 8 SSO 1029,7 10 60
24.01.2020 12:00:00 13,0 7,0 15 8 SSO 1029,7 10 60
24.01.2020 11:00:00 12,2 7,1 15 8 SSO 1029,7 10 60
24.01.2020 10:00:00 12,2 7,5 15 8 SSO 1029,5 10 60
24.01.2020 09:00:00 12,2 7,5 13 7 S 1029,0 10 60
24.01.2020 08:00:00 11,2 8,2 13 7 S 1028,5 10 18
24.01.2020 07:00:00 9,0 6,3 5 3 NNE 1028,6 10 0
24.01.2020 06:00:00 - - - - - - - -
24.01.2020 05:00:00 - - - - - - - -
24.01.2020 04:00:00 - - - - - - - -
24.01.2020 03:00:00 - - - - - - - -
24.01.2020 02:00:00 - - - - - - - -
24.01.2020 01:00:00 - - - - - - - -
24.01.2020 00:00:00 - - - - - - - -
23.01.2020 23:00:00 - - - - - - - -
23.01.2020 22:00:00 - - - - - - - -
23.01.2020 21:00:00 - - - - - - - -
23.01.2020 20:00:00 - - - - - - - -
23.01.2020 19:00:00 9,8 6,0 11 6 NNO 1026,8 10 -
23.01.2020 18:00:00 10,0 5,6 11 6 NNO 1026,6 10 -
23.01.2020 17:00:00 10,6 5,4 13 7 NNO 1026,5 10 42
23.01.2020 16:00:00 12,6 6,2 21 11 N 1026,4 10 60
23.01.2020 15:00:00 12,8 6,6 24 13 N 1026,6 10 60
23.01.2020 14:00:00 13,0 6,1 21 11 N 1026,6 10 60
23.01.2020 13:00:00 13,0 6,4 21 11 N 1027,6 10 60
23.01.2020 12:00:00 12,4 7,1 21 11 NNE 1027,7 10 60
23.01.2020 11:00:00 11,8 6,9 22 12 N 1028,0 10 60
23.01.2020 10:00:00 11,4 6,9 15 8 N 1028,0 10 60
23.01.2020 09:00:00 9,0 6,3 11 6 NO 1028,1 10 18
23.01.2020 08:00:00 8,8 6,2 11 6 NO 1027,8 10 6
23.01.2020 07:00:00 8,8 6,1 9 5 NNO 1027,8 10 0
23.01.2020 06:00:00 - - - - - - - -
23.01.2020 05:00:00 - - - - - - - -
23.01.2020 04:00:00 - - - - - - - -
23.01.2020 03:00:00 - - - - - - - -
23.01.2020 02:00:00 - - - - - - - -
23.01.2020 01:00:00 - - - - - - - -
23.01.2020 00:00:00 - - - - - - - -
22.01.2020 23:00:00 - - - - - - - -
22.01.2020 22:00:00 - - - - - - - -
22.01.2020 21:00:00 - - - - - - - -
22.01.2020 20:00:00 - - - - - - - -
22.01.2020 19:00:00 8,6 5,9 9 5 NNO 1030,5 12 -
22.01.2020 18:00:00 9,4 6,0 9 5 N 1030,5 12 -
22.01.2020 17:00:00 10,4 5,6 13 7 N 1030,6 15 18
22.01.2020 16:00:00 11,4 5,5 16 9 NNE 1030,7 20 60
22.01.2020 15:00:00 12,2 5,4 13 7 N 1031,0 20 60
22.01.2020 14:00:00 12,4 5,5 16 9 N 1031,3 20 60
22.01.2020 13:00:00 12,4 6,0 16 9 N 1032,1 20 60
22.01.2020 12:00:00 12,2 6,2 21 11 N 1033,3 20 60
22.01.2020 11:00:00 11,2 5,9 21 11 N 1034,1 15 60
22.01.2020 10:00:00 10,4 6,2 22 12 N 1034,2 15 60
22.01.2020 09:00:00 9,2 5,9 16 9 N 1034,3 12 60
22.01.2020 08:00:00 6,8 5,1 18 10 N 1034,5 12 18
22.01.2020 07:00:00 6,4 5,2 11 6 NNO 1034,5 10 -
22.01.2020 06:00:00 - - - - - - - -
22.01.2020 05:00:00 - - - - - - - -
22.01.2020 04:00:00 - - - - - - - -
22.01.2020 03:00:00 - - - - - - - -
22.01.2020 02:00:00 - - - - - - - -
22.01.2020 01:00:00 - - - - - - - -
22.01.2020 00:00:00 - - - - - - - -
21.01.2020 23:00:00 - - - - - - - -
21.01.2020 22:00:00 - - - - - - - -
21.01.2020 21:00:00 - - - - - - - -
21.01.2020 20:00:00 - - - - - - - -
21.01.2020 19:00:00 8,2 4,6 9 5 NNO 1037,3 12 -
21.01.2020 18:00:00 8,4 4,6 11 6 N 1036,9 15 -
21.01.2020 17:00:00 10,2 5,0 13 7 N 1037,0 20 12
21.01.2020 16:00:00 11,8 4,8 15 8 N 1037,1 20 60
21.01.2020 15:00:00 12,4 4,9 15 8 N 1037,3 20 60
21.01.2020 14:00:00 12,4 4,9 16 9 N 1037,7 20 60
21.01.2020 13:00:00 12,2 4,2 18 10 NNE 1038,0 20 60
21.01.2020 12:00:00 12,0 3,2 22 12 NNE 1038,3 20 60
21.01.2020 11:00:00 11,2 3,7 21 11 N 1038,5 20 60
21.01.2020 10:00:00 10,0 3,7 21 11 NNE 1038,6 15 60
21.01.2020 09:00:00 9,0 3,2 21 11 N 1038,1 15 60
21.01.2020 08:00:00 7,8 3,3 24 13 NNE 1038,0 15 18
21.01.2020 07:00:00 7,6 3,3 24 13 NNE 1038,0 12 -
21.01.2020 06:00:00 - - - - - - - -
21.01.2020 05:00:00 - - - - - - - -
21.01.2020 04:00:00 - - - - - - - -
21.01.2020 03:00:00 - - - - - - - -
21.01.2020 02:00:00 - - - - - - - -
21.01.2020 01:00:00 - - - - - - - -
21.01.2020 00:00:00 - - - - - - - -
20.01.2020 23:00:00 - - - - - - - -
20.01.2020 22:00:00 - - - - - - - -
20.01.2020 21:00:00 - - - - - - - -
20.01.2020 20:00:00 - - - - - - - -
20.01.2020 19:00:00 9,0 5,2 18 10 NNE 1036,1 12 -
20.01.2020 18:00:00 9,6 5,0 16 9 NNE 1035,3 12 -
20.01.2020 17:00:00 10,2 5,0 16 9 NNE 1034,6 12 0
20.01.2020 16:00:00 11,6 5,2 13 7 NE 1034,4 12 12
20.01.2020 15:00:00 12,2 5,8 18 10 NE 1033,9 15 18
20.01.2020 14:00:00 12,8 5,7 18 10 NE 1033,7 15 60
20.01.2020 13:00:00 13,0 5,2 22 12 NE 1033,4 15 54
20.01.2020 12:00:00 12,4 5,5 22 12 NNE 1033,5 15 48
20.01.2020 11:00:00 12,0 5,2 22 12 NE 1033,5 12 60
20.01.2020 10:00:00 11,2 6,7 18 10 NNE 1032,7 12 48
20.01.2020 09:00:00 9,6 7,4 18 10 NNE 1031,8 12 6
20.01.2020 08:00:00 8,0 6,1 18 10 NNE 1031,2 12 0
20.01.2020 07:00:00 7,4 6,0 15 8 N 1030,5 12 -
20.01.2020 06:00:00 - - - - - - - -
20.01.2020 05:00:00 - - - - - - - -
20.01.2020 04:00:00 - - - - - - - -
20.01.2020 03:00:00 - - - - - - - -
20.01.2020 02:00:00 - - - - - - - -
20.01.2020 01:00:00 - - - - - - - -
20.01.2020 00:00:00 - - - - - - - -
19.01.2020 23:00:00 - - - - - - - -
19.01.2020 22:00:00 - - - - - - - -
19.01.2020 21:00:00 - - - - - - - -
19.01.2020 20:00:00 - - - - - - - -
19.01.2020 19:00:00 9,2 6,6 15 8 NNE 1024,5 12 -
19.01.2020 18:00:00 10,4 6,7 15 8 NNE 1023,6 15 -
19.01.2020 17:00:00 11,4 7,5 9 5 NE 1022,6 20 12
19.01.2020 16:00:00 12,0 8,3 11 6 ENE 1022,3 20 12
19.01.2020 15:00:00 11,8 7,9 11 6 E 1021,7 20 0
19.01.2020 14:00:00 12,2 7,9 9 5 ENE 1021,3 20 6
19.01.2020 13:00:00 12,8 7,7 11 6 NE 1021,3 15 18
19.01.2020 12:00:00 12,9 7,4 13 7 NNE 1021,2 15 60
19.01.2020 11:00:00 12,0 8,1 16 9 NNE 1021,3 15 60
19.01.2020 10:00:00 11,0 7,5 13 7 NNE 1020,9 15 60
19.01.2020 09:00:00 9,4 6,3 16 9 NNE 1020,7 12 54
19.01.2020 08:00:00 8,6 4,4 16 9 N 1020,1 15 6
19.01.2020 07:00:00 9,2 5,0 18 10 N 1019,8 12 -
19.01.2020 06:00:00 - - - - - - - -

tt = Temperatura
td = dewpoint
ff = velocità del vento
dd = direzione del vento
ppp = reduced air pressure
vv = visibility
sd = ore di luce

Stazioni seguenti

WeatherPro
AMSI
MeteoEarth